星链-30494 (STARLINK-30494 )

导读

STARLINK-30494是美国SpaceX公司星链星座的一员,于2023年9月30日发射升空,属于低轨通信卫星。星链项目旨在为全球提供高速宽带互联网服务,该卫星采用平板设计,配备氪工质霍尔推进器,具备自主避撞能力,寿命末期会主动离轨坠入大气层烧毁,可与其他卫星协同,扩展全球网络覆盖,提升星链通信服务的稳定性与带宽容量。

基本信息
目录编号:
57970
目录名称:
STARLINK-30494
国际标识:
2023-151G
轨道中心:
EARTH
卫星名称:
星链-30494
卫星全名:
星链-30494 (STARLINK-30494 )
卫星状态:
在轨 (已飞行1070 天)
发射日期:
2023-09-30 UTC
国别 :
美国 (US)
星等 :
--
轨道信息
数据来源 国际轨道数据 AOE轨道数据
星历时间 2026-09-03T09:50:22+0800
1天前
查看轨道信息
2026-08-29T03:00:00+0800
6天前
查看轨道信息
半长轴 6861.186km 6861.167km
偏心率 0.000141 0.000113
轨道倾角 43.002° 43.000°
近地点辐角 270.461° 280.172°
升交点赤经 268.765° 298.614°
平近点角 89.608° 142.240°
近地点 482.081km 482.254km
远地点 484.017km 483.806km
周期 94.267分钟 94.266分钟
每日圈数 15.275803 15.275866
详细信息
固有亮度:
5
最大亮度:
0.3
卫星平台:
Starlink v2.0 mini
覆盖范围:
全球
运营商:
太空探索技术公司
运营商所在国:
美国
制造商(研发单位):
太空探索技术公司
制造商所在国:
美国
使用方式:
暂无
卫星简介
星链(Starlink)计划是由太空探索技术公司(SpaceX)提出的一个巨型低轨卫星互联网星座项目,计划在2019年至2024年间在太空搭建由约1.2万颗卫星组成的“星链”网络,其中1584颗将部署在地球上空550千米处的近地轨道,并从2020年开始工作。该卫星仍在工作。
2D轨道图
3D轨道图
轨道高度分析图
轨道倾角分析图
轨道综合分析图
查看轨道综合分析图
交会数据列表
事件ID 空间交会对象 最接近时刻(TCA) 交会距离 交会风险概率(CRP) 交会风险指数(CRI) 操作
CDM_260904-183304-283905-797021
2026-09-04T
18:33:56+0000
1.355 km
极远距离
9.209444E-6 低风险 0.54
CDM_260903-152705-797006-264023
2026-09-03T
15:27:17+0000
1.266 km
极远距离
8.728713E-6 低风险 0.54